Location: ????????
(41.0663°N, 22.5932°E)
Time: 01:12:15
(UTC+00:00)

Daily predictions for brighter satellites

Satellite Brightness Start Highest point End
(mag) Time Altitude Azimuth Time Altitude Azimuth Time Altitude Azimuth
Cosmos 2344 4.1 02:34:23 45° N 02:34:23 45° N 02:39:50 10° NNE
CENTAUR R/B 3.5 02:43:36 37° NNE 02:43:36 37° NNE 02:47:58 10° NNE
Tsikada Rocket 3.8 02:55:02 10° S 03:01:13 85° W 03:07:33 10° N
BREEZE-M DEB (TANK) 4.1 03:01:50 61° SSW 03:01:50 61° SSW 03:05:41 10° SE
Meteor 1-26 Rocket 4.3 03:00:52 52° N 03:02:18 76° E 03:08:00 10° SSE
Cosmos 2369 Rocket 2.1 03:05:39 68° S 03:06:20 80° ESE 03:11:57 10° NNE
NOSS 3-2 (C) 3.9 03:08:14 43° N 03:08:14 43° N 03:12:59 10° NNE
Cosmos 1241 Rocket 4.3 03:16:23 66° W 03:16:43 67° WSW 03:22:51 10° SSE
Cosmos 1656 Rocket 3.7 03:13:32 12° SSW 03:18:30 72° ESE 03:23:56 10° NNE
SJ 16-02 4.4 03:16:25 10° SE 03:18:56 15° E 03:21:28 10° ENE
Meteor 1-31 Rocket 4.2 03:17:22 10° NNE 03:21:02 38° E 03:24:41 10° SSE
Envisat 3.4 03:17:44 10° NNE 03:22:47 62° E 03:27:48 10° S
H-2A R/B 3.1 03:21:45 10° NNE 03:25:44 59° SE 03:29:11 10° S
Cosmos 2098 Rocket 3.1 03:24:05 10° S 03:27:54 77° E 03:32:47 10° N
Cosmos 1943 Rocket 3.7 03:30:59 21° NNW 03:30:59 21° NNW 03:33:18 10° N
CZ-2C R/B 3.1 03:23:53 10° SSE 03:29:17 63° ENE 03:34:37 10° N
H-2A R/B (2) 4.5 03:26:40 10° S 03:30:32 21° SE 03:40:36 10° E
SKYMED 2 4.0 03:29:07 10° SSE 03:33:23 62° ENE 03:36:10 21° N
Cosmos 1862 3.4 03:30:12 10° S 03:34:06 71° E 03:38:03 10° NNE
Meteor 2-13 Rocket 4.3 03:28:15 10° SSW 03:34:19 70° W 03:40:25 10° N
USA 238 DEB 4.1 03:34:56 37° NW 03:35:00 37° NW 03:41:17 10° NNE
USA 238 4.1 03:35:01 37° NW 03:35:06 37° NW 03:41:23 10° NNE
DELTA 2 R/B (1) 3.7 03:35:03 42° SW 03:36:50 66° SSE 03:42:20 10° E
SL-8 R/B 4.1 03:37:29 43° NNW 03:38:28 51° NNE 03:43:07 10° E
Cosmos 921 Rocket 3.0 03:39:09 62° WSW 03:39:09 62° WSW 03:43:29 10° S
USA 215 3.8 03:33:45 10° ESE 03:40:00 51° NNE 03:44:01 22° NNW
MOS 1-B Rocket 3.9 03:35:36 10° S 03:41:59 73° WSW 03:46:58 14° NNW
TSX-5 4.3 03:40:49 43° NW 03:42:29 68° WSW 03:46:55 10° SSE
CBERS 1 LM4 rocket 4.4 03:44:46 10° NNE 03:49:42 90° SSE 03:54:46 10° SSW
H-2A R/B 4.4 03:46:34 10° ESE 03:49:48 21° ENE 03:53:06 10° NNE
Cosmos 1354 Rocket 4.1 03:46:50 10° SSW 03:52:05 82° ESE 03:57:25 10° NNE
SJ-12 3.9 03:48:16 10° N 03:52:21 61° WNW 03:56:26 10° SSW
SL-19 R/B 4.2 03:46:59 10° S 03:52:30 60° WSW 03:56:43 18° NNW
DNEPR-1 R/B 4.0 03:50:37 28° NNW 03:53:20 83° ENE 03:59:15 10° SE
Cosmos 1151 Rocket 2.9 03:51:51 29° NNW 03:54:00 66° W 03:58:20 10° S
Okean 3 Rocket 3.5 03:51:04 10° SSW 03:55:35 72° W 04:00:08 10° N
BREEZE-M DEB (TANK) 3.8 03:59:21 31° WNW 04:01:44 66° SSW 04:19:23 10° SE
Cosmos 1766 Rocket 3.6 03:57:56 10° SSW 04:02:09 52° W 04:06:24 10° N
ADEOS 3.8 03:57:42 10° NNE 04:02:57 74° ESE 04:08:08 10° S
CZ-4B R/B 4.2 04:01:29 10° NNE 04:04:49 37° E 04:08:11 10° SSE
BREEZE M DEB (TANK) 4.1 04:12:17 20° NNW 04:12:50 21° N 04:14:52 10° NE
Cosmos 1328 Rocket 3.5 04:08:49 12° NNW 04:12:51 58° W 04:17:05 10° S
ATLAS 5 CENTAUR R/B 1.6 04:12:17 10° SSW 04:16:00 65° ESE 04:20:06 10° NE
CZ-2C R/B 3.3 04:13:16 10° NNE 04:18:10 69° ESE 04:23:18 10° S
Meteor 2-6 Rocket 4.3 04:14:45 10° NNW 04:19:58 50° W 04:25:08 10° SSW
Cosmos 2279 Rocket 4.1 04:14:04 10° NNW 04:20:02 52° W 04:26:00 10° SSW
COSMO-SKYMED 1 3.1 04:17:28 10° SSW 04:21:30 37° W 04:24:46 15° NW
Cosmos 1340 Rocket 3.3 04:20:22 10° S 04:24:15 63° E 04:28:12 10° NNE
Meteor 2-15 Rocket 4.4 04:19:58 10° N 04:26:04 88° ENE 04:32:09 10° S
Nadezhda 4 Rocket 3.9 04:21:13 10° S 04:27:22 85° W 04:33:38 10° N
CZ-4C R/B 2.9 04:25:12 10° S 04:28:14 47° W 04:30:39 15° NNW
Cosmos 1812 4.1 04:29:57 19° W 04:29:57 19° W 04:32:35 10° SW
Cosmos 783 Rocket 4.4 04:27:07 10° NNW 04:32:19 74° WSW 04:37:29 10° S
Meteor PRIRODA 3.5 04:28:59 10° N 04:32:36 77° WNW 04:36:14 10° SSW
H-2A R/B 4.4 04:28:49 10° NE 04:32:54 26° E 04:36:58 10° SSE
Cosmos 1833 4.4 04:27:30 11° NNW 04:32:55 52° WSW 04:38:27 10° S
CENTAUR R/B 4.0 04:30:49 15° NW 04:33:30 18° NNW 04:38:20 10° NNE
Cosmos 1408 Rocket 3.7 04:31:28 10° SSW 04:35:38 48° W 04:39:49 10° N
COSMOS 2487 3.9 04:35:24 10° N 04:38:29 34° ENE 04:41:34 10° SE
Cosmos 1777 Rocket 3.9 04:36:36 10° SSW 04:41:46 67° WNW 04:47:00 10° NNE
Cosmos 1939 Rocket 2.9 04:38:07 10° NNE 04:42:04 80° ESE 04:45:55 10° S
USA 32 4.3 04:37:35 10° N 04:42:51 72° E 04:48:04 10° S
Cosmos 2228 Rocket 3.9 04:39:18 10° N 04:43:44 56° E 04:48:11 10° SSE
Cosmos 1092 Rocket 4.3 04:37:36 10° S 04:43:49 76° E 04:50:09 10° N
Cosmos 1743 Rocket 3.5 04:40:09 10° SSW 04:44:32 76° W 04:48:55 10° N
DMSP B5D2-2 4.1 04:43:08 10° S 04:48:17 63° W 04:53:28 10° NNW
Cosmos 2297 Rocket 4.0 04:43:57 10° N 04:48:43 27° NE 04:53:25 10° ESE
Cosmos 773 Rocket 4.1 04:44:12 10° NNW 04:49:19 57° WSW 04:54:21 10° S
Cosmos 2369 Rocket 3.6 04:47:36 10° W 04:51:03 17° NW 04:54:35 10° N
Meteor 1-31 Rocket 4.3 04:52:41 10° NNW 04:55:05 16° WNW 04:57:28 10° WSW
Cosmos 1515 Rocket 4.1 04:51:30 10° NNW 04:55:29 36° W 04:59:26 10° SSW
SL-4 R/B 3.6 04:53:20 10° SSW 04:56:31 33° SE 04:59:53 10° ENE
SJ 16-02 1.6 04:52:53 10° SW 04:57:05 45° WNW 05:01:18 10° N
NOAA 6 4.2 04:52:52 10° NNE 04:58:01 83° ESE 05:03:08 10° SSW
BREEZE-M DEB (TANK) 3.3 04:46:49 10° WSW 04:58:06 61° NNW 05:01:24 10° NE
IRAS Rocket 4.5 04:52:57 10° S 04:58:18 50° WSW 05:03:38 10° NNW
SMAP 3.1 04:54:47 10° NNE 04:59:28 85° WNW 05:04:07 10° SSW
ATLAS 3B R/B 2.6 04:54:32 10° SW 05:01:01 73° NW 05:07:51 10° NNE
Okean 1 4.2 04:57:10 10° N 05:01:02 52° E 05:04:53 10° SSE
Envisat 4.4 04:58:08 10° NNW 05:01:17 17° WNW 05:04:25 10° W
SL-27 R/B 3.2 04:59:46 10° NW 05:03:01 33° WSW 05:06:13 10° SSW
Geosat FO 4.4 04:59:46 10° SSE 05:03:05 86° WSW 05:06:24 10° NNW
FengYun 1-2 T 4.2 05:01:51 10° N 05:07:19 67° WNW 05:12:44 10° SSW
AQUARIUS 4.1 05:04:11 10° N 05:08:41 78° WNW 05:13:10 10° SSW
CZ-2C R/B 4.1 05:06:31 10° SW 05:09:57 17° W 05:13:22 10° NW
